Location: Gleizolles
(44.4833°N, 6.7667°E)
Time: 16:57:08
(UTC+00:00)

Tiros 1 - Pass Details

Date: 30 June 2024
Orbit: 624 x 656 km, 48.4° (Epoch: 13 July)

Event Time Altitude Azimuth Distance (km) Brightness Sun altitude
Rises 22:51:46 0° 275° (W) 2,901 10.7 -21.6°
Reaches altitude 10° 22:54:08 10° 281° (W) 1,995 9.9 -21.7°
Maximum altitude 22:58:37 51° 358° (N) 785 7.9 -21.9°
Drops below altitude 10° 23:03:07 10° 75° (ENE) 2,003 9.7 -22.0°
Sets 23:05:30 0° 80° (E) 2,914 10.5 -22.0°
